Retour au catalogue

CZ-4C DEB

ActifLEO
NORAD 38304·DEBRIS·🇨🇳 China

Lancé Mar 5, 2010 depuis Jiuquan Satellite Launch Center

Loading…

Prochains Passages (prochaines 24 heures)

TLE

FraisSource: Space-Track

Époque: Sep 14, 2026, 05:05 UTC

1 38304U 10009H   26257.21236495  .00000027  00000-0  26313-3 0  9999
2 38304  63.3053 126.8120 0321767  27.9312  61.6030 13.04261356620915

Suivez CZ-4C DEB en temps réel avec AllMySat

Download on the App Store